Iron Mountain, MI

10:13 PM CDT on July 30, 2016 (GMT -0500)
Ford

Weather History for KIMT - March, 2014

Change the Weather History Date:

Saturday, March 22, 2014

  Actual Average Record
Temperature  
Mean Temperature 20 °F -  
Max Temperature 32 °F 40 °F 67 °F (1945)
Min Temperature 9 °F 17 °F -14 °F (1989)
Degree Days  
Heating Degree Days 44    
Moisture  
Dew Point 11 °F    
Average Humidity 66    
Maximum Humidity 93    
Minimum Humidity 47    
Precipitation  
Precipitation 0.00 in - - ()
Sea Level Pressure  
Sea Level Pressure 30.13 in    
Wind  
Wind Speed 11 mph (NW)    
Max Wind Speed 22 mph    
Max Gust Speed 37 mph    
Visibility 9 miles    
Events Snow    
Averages and records for this station are not official NWS values.
T = Trace of Precipitation, MM = Missing Value Source: NWS Daily Summary

Daily Weather History Graph

Daily Weather History Graph

Search for Another Location

Airport or City:

Trip Planner

Search our weather history database for the weather conditions in past years. The results will help you decide how hot, cold, wet, or windy it might be!

Date:

Astronomy

Mar. 22, 2014 Rise Set
Actual Time 6:51 AM CDT 7:07 PM CDT
Civil Twilight 6:21 AM CDT 7:37 PM CDT
Nautical Twilight 5:46 AM CDT 8:12 PM CDT
Astronomical Twilight 5:10 AM CDT 8:48 PM CDT
Moon 12:41 AM CDT (3/22) 10:19 AM CDT (3/22)
Length of Visible Light 13h 15m
Length of Day
12h 16m
Waning Gibbous, 65% of the Moon is Illuminated
Mar 22
Waning Gibbous
Mar 23
Last Quarter
Mar 30
New
Apr 7
First Quarter
Apr 15
Full

Hourly Weather History & Observations

Time (CDT) Temp. Windchill Dew Point Humidity Pressure Visibility Wind Dir Wind Speed Gust Speed Precip Events Conditions
12:41 AM 28.4 °F 24.6 °F 26.6 °F 93% 29.82 in 8.0 mi NW 3.5 mph - 0.00 in   Overcast
12:54 AM 30.0 °F - 26.1 °F 85% 29.86 in 8.0 mi Calm Calm - 0.00 in   Overcast
1:22 AM 30.2 °F - 26.6 °F 86% 29.83 in 8.0 mi Calm Calm - N/A   Overcast
1:54 AM 30.0 °F 24.1 °F 27.0 °F 88% 29.88 in 8.0 mi NW 5.8 mph - N/A   Overcast
2:38 AM 32.0 °F 22.5 °F 26.6 °F 80% 29.85 in 9.0 mi NW 12.7 mph - N/A   Overcast
2:54 AM 32.0 °F 21.6 °F 27.0 °F 82% 29.89 in 8.0 mi NW 15.0 mph 19.6 mph 0.00 in   Overcast
3:54 AM 30.9 °F 18.1 °F 24.1 °F 76% 29.92 in 10.0 mi NW 21.9 mph 27.6 mph 0.00 in   Overcast
4:54 AM 26.1 °F 11.6 °F 19.9 °F 78% 29.98 in 6.0 mi NW 21.9 mph 36.8 mph 0.00 in   Overcast
5:54 AM 21.9 °F 7.3 °F 14.0 °F 72% 30.03 in 10.0 mi NNW 18.4 mph 26.5 mph 0.00 in   Overcast
6:54 AM 19.9 °F 4.3 °F 12.0 °F 71% 30.08 in 8.0 mi NW 19.6 mph 27.6 mph 0.00 in Snow Light Snow
7:54 AM 18.0 °F 1.3 °F 10.0 °F 71% 30.12 in 10.0 mi NNW 20.7 mph 31.1 mph 0.00 in   Overcast
8:54 AM 17.1 °F 0.6 °F 8.1 °F 68% 30.15 in 4.0 mi NW 19.6 mph 26.5 mph 0.00 in Snow Light Snow
9:30 AM 17.6 °F 2.7 °F 8.6 °F 68% 30.11 in 4.0 mi NNW 16.1 mph - 0.00 in Snow Light Snow
9:54 AM 18.0 °F 3.1 °F 8.1 °F 65% 30.18 in 7.0 mi NW 16.1 mph - 0.00 in   Overcast
10:15 AM 17.6 °F 3.2 °F 6.8 °F 63% 30.13 in 7.0 mi NW 15.0 mph 24.2 mph 0.00 in Snow Light Snow
10:40 AM 17.6 °F 2.2 °F 6.8 °F 63% 30.13 in 10.0 mi NW 17.3 mph 24.2 mph 0.00 in   Overcast
10:54 AM 19.0 °F 3.6 °F 5.0 °F 54% 30.19 in 10.0 mi NNW 18.4 mph 26.5 mph 0.00 in   Overcast
11:54 AM 18.0 °F 3.1 °F 7.0 °F 62% 30.22 in 7.0 mi NNW 16.1 mph - 0.00 in Snow Light Snow
12:54 PM 19.9 °F 4.3 °F 3.9 °F 50% 30.23 in 10.0 mi WNW 19.6 mph 24.2 mph 0.00 in   Scattered Clouds
1:54 PM 19.9 °F 8.6 °F 3.9 °F 50% 30.23 in 10.0 mi NW 10.4 mph - N/A   Mostly Cloudy
2:54 PM 21.0 °F 8.6 °F 3.9 °F 48% 30.23 in 10.0 mi NW 12.7 mph - N/A   Partly Cloudy
3:54 PM 19.9 °F 4.3 °F 3.0 °F 48% 30.24 in 10.0 mi NW 19.6 mph 23.0 mph N/A   Clear
4:54 PM 19.0 °F 4.0 °F 1.9 °F 47% 30.26 in 10.0 mi NW 17.3 mph 23.0 mph N/A   Partly Cloudy
5:54 PM 18.0 °F 4.2 °F 3.0 °F 52% 30.28 in 10.0 mi NNW 13.8 mph - N/A   Scattered Clouds
6:54 PM 16.0 °F 1.7 °F 3.0 °F 57% 30.31 in 10.0 mi NW 13.8 mph - N/A   Scattered Clouds
7:54 PM 14.0 °F 3.9 °F 1.0 °F 56% 30.34 in 10.0 mi NNW 6.9 mph 16.1 mph N/A   Scattered Clouds
8:54 PM 12.9 °F -0.9 °F 1.0 °F 59% 30.37 in 10.0 mi WNW 11.5 mph - N/A   Clear
9:54 PM 10.9 °F -0.8 °F -0.0 °F 61% 30.38 in 10.0 mi WNW 8.1 mph - N/A   Clear
10:54 PM 9.0 °F -0.9 °F -0.0 °F 67% 30.39 in 10.0 mi NW 5.8 mph - N/A   Clear
11:54 PM 9.0 °F -4.2 °F 1.0 °F 70% 30.39 in 10.0 mi WNW 9.2 mph - N/A   Clear